Weather in Novonikolayevka

Russia / Astrakhan Oblast     48°02′56″N   46°21′54″E
temp.,
°C
wind,
m/s
gust,
m/s
humid.,
%
clouds,
%
prec.,
mm/h
press.,
hPa
HPBL,
m
1 august, sun
sun101:00+27sse33230 0.0 101015
04:00+24sse33250 0.0 101128
07:00+26se22300 0.0 101269
10:00+33ese23220 0.0 1012904
13:00+37ese43150 0.0 10113047
16:00+38se43180 0.0 10103528
19:00+36se53201 0.0 10091961
22:00+30ese33322 0.0 101018
2 august, mon
mon201:00+28sse34386 0.1 101048
04:00+29sw224031 0.1 101138
07:00+29s22425 0.2 101172
10:00+35s44243 0.2 10121219
13:00+38s67131 0.0 10113091
16:00+39s66121 0.0 10103677
19:00+38ssw36133 0.0 10103599
22:00+31s332056 0.0 101028
3 august, tue
tue301:00+28s232213 0.0 101015
04:00+27ssw23246 0.0 101012
07:00+29s352231 0.0 1011107
10:00+37s34145 0.0 10111018
13:00+40ssw6693 0.0 10103777
16:00+40ssw56820 0.0 10094066
19:00+39ssw4591 0.0 10081329
22:00+31ssw22150 0.0 100911
4 august, wed
wed401:00+30s45160 0.0 100947
04:00+27ssw45205 0.0 100954
07:00+28s382249 0.0 1010171
10:00+36ssw3415100 0.0 1010678
13:00+38wnw4515100 0.0 10102478
16:00+37wnw4419100 0.1 10101803
19:00+36nnw1322100 0.0 10101041
22:00+30nnw6123617 0.0 1012386
5 august, thu
thu501:00+27nnw5103897 0.0 1012285
04:00+25nnw4746100 0.1 1013191
07:00+25n4648100 0.0 1014282
10:00+27nne3446100 0.2 1015783
13:00+32nne5530100 0.0 10142660
16:00+34n65220 0.0 10133034
19:00+32n66205 0.0 10132628
22:00+26n4112869 0.0 1014197